Location: Alpha Ridge Park
(39.3209°N, 76.9128°W)
Time: 07:37:25
(UTC-04:00)

AO-92 - Pass Details

Date: 02 July 2022
Orbit: 469 x 481 km, 97.4° (Epoch: 09 August)

Event Time Altitude Azimuth Distance (km) Brightness Sun altitude
Exits shadow 23:06:02 65° 66° (ENE) 531 ? -21.1°
Drops below altitude 10° 23:09:30 10° 354° (N) 1,665 ? -21.5°
Sets 23:11:35 0° 352° (N) 2,552 ? -21.7°
